This demonstration page uses our WeatherBlox Daily Observations layout. Learn more.

Hourly Observations for December 30, 2017

Temp ( °F °C ) Dew Point ( °F °C ) Humidity (%) Winds ( mph kmh ) Pressure ( in mb ) Visibility ( mi km ) Precip ( " mm )
12:15 am 00:15 Clear 2 -16.6 -4 -19.9 76 76 NNW 7 11 30.68 1039 10 16.09344 0 0
12:35 am 00:35 Clear 1 -17 -4 -20 78 78 NNW 7 11 30.68 1039 10 16.09344 0 0
12:55 am 00:55 Clear 2 -16.8 -4 -19.8 78 78 N 9 15 30.68 1039 10 16.09344 0 0
1:15 am 01:15 Clear 2 -16.6 -3 -19.7 77 77 NNW 7 11 30.68 1039 10 16.09344 0 0
1:35 am 01:35 Mostly Cloudy 2 -16.9 -4 -19.9 78 78 NNW 5 7 30.68 1039 10 16.09344 0 0
1:55 am 01:55 Partly Cloudy 1 -17 -4 -20 78 78 NNW 7 11 30.68 1039 10 16.09344 0 0
2:15 am 02:15 Partly Cloudy 1 -17 -4 -20.1 77 77 NW 3 6 30.68 1039 10 16.09344 0 0
2:35 am 02:35 Clear 1 -17.2 -4 -20.2 78 78 NW 6 9 30.68 1039 10 16.09344 0 0
2:55 am 02:55 Partly Cloudy 1 -17.1 -4 -20 78 78 WNW 5 7 30.68 1039 10 16.09344 0 0
3:15 am 03:15 Clear 2 -16.7 -4 -19.8 77 77 WNW 7 11 30.68 1039 10 16.09344 0 0
3:35 am 03:35 Clear 1 -17.5 -5 -20.4 78 78 NW 6 9 30.68 1039 10 16.09344 0 0
3:55 am 03:55 Clear 0 -17.9 -5 -20.8 78 78 NNW 7 11 30.68 1039 10 16.09344 0 0
4:15 am 04:15 Clear -2 -18.8 -7 -21.5 79 79 N 7 11 30.71 1040 10 16.09344 0 0
4:35 am 04:35 Partly Cloudy -1 -18.5 -6 -21.1 80 80 N 6 9 30.71 1040 10 16.09344 0 0
4:55 am 04:55 Partly Cloudy 0 -17.8 -5 -20.6 79 79 NNE 7 11 30.68 1039 10 16.09344 0 0
5:15 am 05:15 Mostly Cloudy 0 -17.7 -5 -20.6 78 78 N 3 6 30.68 1039 10 16.09344 0 0
5:35 am 05:35 Cloudy 1 -17.3 -4 -20.1 79 79 Calm 30.68 1039 10 16.09344 0 0
5:55 am 05:55 Cloudy 3 -16.2 -3 -19.6 75 75 NNE 8 13 30.68 1039 10 16.09344 0 0
6:15 am 06:15 Cloudy 3 -16 -4 -20 72 72 NNE 9 15 30.68 1039 10 16.09344 0 0
6:35 am 06:35 Cloudy 3 -16 -4 -20 72 72 NE 12 19 30.68 1039 10 16.09344 0 0
6:55 am 06:55 Cloudy 3 -16 -4 -20 72 72 NE 8 13 30.68 1039 10 16.09344 0 0
7:15 am 07:15 Cloudy 3 -16 -4 -19.9 72 72 NE 6 9 30.71 1040 10 16.09344 0 0
7:35 am 07:35 Cloudy 3 -16 -4 -20 72 72 NE 6 9 30.71 1040 10 16.09344 0 0
7:55 am 07:55 Cloudy 3 -16 -4 -19.9 72 72 NNE 5 7 30.71 1040 10 16.09344 0 0
8:15 am 08:15 Cloudy 4 -15.7 -4 -20 70 70 NNE 10 17 30.68 1039 10 16.09344 0 0
8:35 am 08:35 Cloudy 4 -15.7 -4 -20 70 70 NNE 9 15 30.68 1039 10 16.09344 0 0
8:55 am 08:55 Cloudy 4 -15.7 -4 -20 70 70 NE 7 11 30.68 1039 10 16.09344 0 0
9:15 am 09:15 Cloudy 4 -15.6 -4 -20 69 69 NE 8 13 30.68 1039 10 16.09344 0 0
9:35 am 09:35 Cloudy 4 -15.6 -4 -20 69 69 NE 7 11 30.68 1039 10 16.09344 0 0
9:55 am 09:55 Cloudy 4 -15.7 -4 -20 70 70 NE 7 11 30.68 1039 10 16.09344 0 0
10:15 am 10:15 Cloudy 4 -15.5 -4 -20 69 69 E 7 11 30.71 1040 10 16.09344 0 0
10:35 am 10:35 Cloudy 4 -15.5 -4 -20 69 69 ENE 7 11 30.65 1038 10 16.09344 0 0
10:55 am 10:55 Cloudy 4 -15.5 -4 -20.1 68 68 ENE 6 9 30.71 1040 10 16.09344 0 0
11:15 am 11:15 Cloudy 4 -15.3 -4 -19.9 68 68 ENE 6 9 30.65 1038 10 16.09344 0 0
11:35 am 11:35 Cloudy 4 -15.3 -4 -20 68 68 NE 5 7 30.65 1038 10 16.09344 0 0
11:55 am 11:55 Cloudy 5 -15.2 -4 -19.8 68 68 ESE 6 9 30.65 1038 7 11.265408 0 0
12:15 pm 12:15 Cloudy 5 -15.2 -3 -19.7 69 69 ESE 7 11 30.65 1038 7 11.265408 0 0
12:35 pm 12:35 Cloudy 5 -15.1 -3 -19.4 70 70 SE 7 11 30.62 1037 7 11.265408 0 0
12:55 pm 12:55 Cloudy 5 -15 -3 -19.5 69 69 SSE 5 7 30.62 1037 10 16.09344 0 0
1:15 pm 13:15 Cloudy 5 -15 -3 -19.5 69 69 Calm 30.62 1037 7 11.265408 0 0
1:35 pm 13:35 Cloudy 5 -15 -4 -19.9 66 66 ESE 5 7 30.59 1036 10 16.09344 0 0
1:55 pm 13:55 Cloudy 6 -14.6 -3 -19.3 68 68 ESE 5 7 30.56 1035 10 16.09344 0 0
2:15 pm 14:15 Cloudy 6 -14.5 -3 -19.2 68 68 SE 9 15 30.53 1034 10 16.09344 0 0
2:35 pm 14:35 Cloudy 5 -14.8 -3 -19.5 68 68 ESE 7 11 30.56 1035 10 16.09344 0 0
2:55 pm 14:55 Cloudy 5 -14.8 -2 -19.1 70 70 SE 9 15 30.53 1034 10 16.09344 0 0
3:15 pm 15:15 Cloudy 5 -14.9 -2 -19.1 71 71 SE 8 13 30.53 1034 10 16.09344 0 0
3:35 pm 15:35 Cloudy 5 -14.8 -3 -19.2 69 69 SE 10 17 30.5 1033 10 16.09344 0 0
3:55 pm 15:55 Cloudy 5 -15 -3 -19.5 69 69 SE 10 17 30.53 1034 10 16.09344 0 0
4:15 pm 16:15 Cloudy 5 -15.1 -3 -19.6 69 69 SE 10 17 30.5 1033 10 16.09344 0 0
4:35 pm 16:35 Mostly Cloudy 4 -15.3 -3 -19.4 71 71 ESE 12 19 30.5 1033 10 16.09344 0 0
4:55 pm 16:55 Cloudy 5 -15.2 -3 -19.2 72 72 SE 12 19 30.5 1033 10 16.09344 0 0
5:15 pm 17:15 Cloudy 5 -15.2 -2 -19.1 72 72 ESE 13 20 30.5 1033 10 16.09344 0 0
5:35 pm 17:35 Cloudy 4 -15.4 -3 -19.3 72 72 SE 12 19 30.5 1033 10 16.09344 0 0
5:55 pm 17:55 Cloudy 4 -15.5 -2 -19.1 74 74 ESE 10 17 30.5 1033 10 16.09344 0 0
6:15 pm 18:15 Cloudy 4 -15.3 -2 -19 74 74 E 10 17 30.53 1034 10 16.09344 0 0
6:35 pm 18:35 Cloudy 4 -15.5 -2 -19.1 74 74 E 8 13 30.56 1035 10 16.09344 0 0
6:55 pm 18:55 Cloudy 4 -15.5 -3 -19.3 73 73 E 12 19 30.53 1034 10 16.09344 0 0
7:15 pm 19:15 Cloudy 4 -15.5 -3 -19.2 74 74 E 10 17 30.56 1035 10 16.09344 0 0
7:35 pm 19:35 Cloudy 4 -15.5 -3 -19.2 74 74 E 10 17 30.59 1036 10 16.09344 0 0
7:55 pm 19:55 Cloudy with Haze 4 -15.5 -2 -19 75 75 ENE 13 20 30.59 1036 4 6.437376 0 0
8:15 pm 20:15 Cloudy 3 -15.9 -3 -19.2 76 76 ENE 12 19 30.59 1036 7 11.265408 0 0
8:35 pm 20:35 Cloudy 3 -16 -3 -19.5 75 75 ENE 13 20 30.65 1038 7 11.265408 0 0
8:55 pm 20:55 Cloudy 3 -16.2 -3 -19.7 75 75 E 12 19 30.65 1038 10 16.09344 0 0
9:15 pm 21:15 Cloudy 3 -16.2 -4 -19.8 74 74 E 10 17 30.65 1038 10 16.09344 0 0
9:35 pm 21:35 Cloudy 2 -16.5 -4 -19.9 75 75 E 12 19 30.65 1038 10 16.09344 0 0
9:55 pm 21:55 Cloudy 2 -16.6 -4 -19.9 76 76 E 12 19 30.68 1039 10 16.09344 0 0
10:15 pm 22:15 Cloudy 2 -16.8 -5 -20.3 75 75 E 10 17 30.68 1039 10 16.09344 0 0
10:35 pm 22:35 Cloudy 1 -17 -5 -20.4 75 75 E 10 17 30.68 1039 10 16.09344 0 0
10:55 pm 22:55 Cloudy 1 -17 -5 -20.5 74 74 E 9 15 30.68 1039 10 16.09344 0 0
11:15 pm 23:15 Cloudy 1 -17.2 -5 -20.6 75 75 E 10 17 30.68 1039 10 16.09344 0 0
11:35 pm 23:35 Cloudy 1 -17.2 -5 -20.5 76 76 E 9 15 30.68 1039 10 16.09344 0 0
11:55 pm 23:55 Cloudy 1 -17.2 -5 -20.5 76 76 E 7 11 30.68 1039 10 16.09344 0 0

Powered by AerisWeather